World > North America > United States > Ohio > Grover Hill  

Grover Hill, OH Hourly Weather Updates

Feedback E-mail the Weather

Quick Clicks

Grover Hill, OH Weather Maps

°F °C°F °C
Grover Hill Weather Map
UTC Time: 6/17/2024, 23:03
Your Time:

Grover Hill, OH Regional Weather

Expires:202406180000;;199636
ASUS41 KCLE 172302
RWRCLE
OHIO REGIONAL WEATHER ROUNDUP
NATIONAL WEATHER SERVICE CLEVELAND, OH
700 PM EDT MON JUN 17 2024

NOTE: "FAIR" INDICATES FEW OR NO CLOUDS BELOW 12,000 FEET WITH NO
SIGNIFICANT WEATHER AND/OR OBSTRUCTIONS TO VISIBILITY.


OHZ001>008-015>018-024>027-034-035-043-044-180000-
   NORTHWEST OHIO
  
CITY           SKY/WX    TMP DP  RH WIND       PRES   REMARKS
DEFIANCE       MOSUNNY   94  67  41 SW10G22   29.95F HX  97           
FINDLAY        MOSUNNY   94  64  37 SW14      29.99R HX  95           
TOLEDO EXPRESS MOSUNNY   95  68  41 SW5       29.95S HX  99           
TOLEDO EXEC    MOSUNNY   98  65  33 SW9       29.96S HX 101           
LIMA           MOSUNNY   92  67  43 S15       30.01S HX  95           
$$


SKY/WX - Weather  TMP - Temperature  DP - Dew Point  RH - Humidity
WIND - Wind Direction/Speed PRES - Barometric Pressure VSB - Visibility
WCI - Wind Chill Index E13G22 Wind - East Wind 13 mph/Gusts of 22 mph

Trending Headlines

Trending Entertainment Headlines

Grover Hill Radar Loop

Use the map search tool if you want to place a location marker on the radar map...

Grover Hill Quick Facts

National Two Day Weather Forecast


E-mail the Grover Hill Weather Forecast

Voice your opinion or tell us about page issues...